GFSFLT2_prec_cloud_003.txt.gz
Cloud_Cover
100 100 100 100 100 100 100 96 85 100 100 98 100 100 100 100 98 100 100 5 5 0 0 0 0 0 0 0 0 0 0 0
100 98 100 100 100 99 90 80 95 98 89 94 100 100 100 42 100 85 5 0 0 0 0 0 0 0 0 0 0 0 0 0
100 100 100 100 93 98 100 99 100 100 100 100 100 100 100 100 98 81 4 4 5 2 2 0 0 0 0 0 0 0 0 0
100 100 100 100 100 100 100 100 100 96 100 100 100 100 100 42 5 5 13 4 4 5 5 0 0 0 0 0 0 0 0 0
100 100 100 100 100 100 100 100 100 100 100 100 95 97 87 97 98 100 7 13 5 5 5 5 0 1 0 0 0 0 0 0
100 100 100 100 100 100 100 100 100 100 100 88 75 6 4 0 3 6 10 5 5 5 5 5 2 0 0 0 0 0 0 0
100 100 100 100 100 100 100 100 100 98 48 33 64 82 35 84 71 3 45 7 10 8 4 5 1 0 0 0 0 0 0 0
100 100 100 100 100 81 23 16 30 11 63 99 100 100 98 100 100 20 60 98 72 17 0 5 4 0 0 0 0 0 0 0
100 100 93 31 8 87 77 5 5 38 24 5 5 36 86 99 79 69 4 4 0 0 5 5 4 5 0 5 5 2 0 0
45 74 100 81 100 100 100 100 71 5 3 5 5 5 5 5 5 3 5 5 5 5 5 5 2 0 1 5 4 1 0 1
100 99 98 100 100 100 100 100 94 58 35 50 10 28 24 5 13 53 8 5 5 5 5 0 2 0 0 4 3 5 5 5
62 80 100 100 100 100 100 93 36 45 88 84 95 64 6 78 80 6 6 5 4 2 1 0 0 0 0 5 5 5 5 5
8 5 89 55 35 36 28 31 80 79 99 91 63 100 100 49 5 5 5 4 0 0 0 0 0 0 2 5 5 5 5 5
5 27 38 88 14 5 5 41 63 94 91 100 92 28 5 5 5 29 13 0 0 0 5 4 2 4 2 0 4 5 5 5
30 3 2 7 1 36 49 27 68 85 69 5 5 5 5 2 0 0 2 0 4 5 5 5 5 5 5 4 1 4 5 4
1 0 0 1 5 5 14 89 100 37 5 3 0 0 0 0 5 4 5 6 39 32 7 5 5 4 2 5 5 12 6 24
1 0 2 3 6 93 100 94 14 2 0 1 5 3 4 5 43 46 96 99 45 93 14 0 0 5 4 7 6 5 37 88
0 1 5 18 20 5 3 0 2 3 5 10 29 96 79 72 99 86 75 62 53 39 21 0 0 1 2 10 20 30 93 94
5 88 49 5 4 3 10 37 80 98 100 84 99 64 70 95 53 8 4 3 4 3 5 24 92 8 13 68 98 92 0 6
2 5 5 59 9 5 5 6 31 42 88 63 81 87 10 5 5 5 38 77 99 100 100 77 36 79 0 0 0 94 0 0

GFSFLT2_prec_cloud_009.txt.gz
Cloud_Cover
100 100 100 100 100 100 93 53 98 64 99 47 98 53 31 28 5 8 10 5 5 71 59 4 4 1 0 0 0 0 0 0
100 100 100 100 100 89 65 100 100 99 10 29 42 75 100 100 71 47 5 43 49 5 2 0 0 0 0 0 0 0 0 0
100 100 100 100 100 100 100 97 91 50 93 87 100 100 100 100 99 100 60 78 5 4 5 2 0 0 0 2 0 0 0 0
100 100 100 100 100 100 100 100 94 92 98 100 100 100 100 100 19 13 8 2 0 5 0 0 0 0 2 1 0 0 0 0
100 100 100 100 94 93 90 97 100 100 100 100 100 99 86 100 5 2 4 2 0 0 0 0 0 0 0 0 0 0 0 0
100 100 100 95 100 100 100 100 100 100 100 100 100 90 8 5 5 3 2 5 0 5 0 0 0 0 0 0 0 0 0 0
100 100 100 96 100 100 100 100 100 100 100 87 100 96 9 5 5 69 46 5 46 8 5 2 0 0 0 0 0 0 0 0
67 100 100 95 100 100 100 100 100 100 100 100 100 100 95 95 100 90 74 86 6 6 5 5 5 0 0 0 0 0 0 0
100 100 100 100 100 100 100 100 100 100 100 100 100 100 93 81 73 62 40 99 10 6 6 5 4 0 0 0 0 0 0 0
100 100 100 100 100 100 100 100 100 100 100 100 100 100 100 100 99 100 100 100 89 84 26 1 1 1 0 0 0 0 0 0
87 100 100 100 100 100 100 100 100 100 100 100 100 100 100 100 99 82 46 34 6 5 5 5 5 0 0 0 2 0 0 2
87 88 84 98 100 100 88 100 98 98 100 100 100 91 12 4 5 5 5 5 5 5 1 0 0 0 0 0 0 0 0 0
100 56 52 99 71 78 99 68 72 71 14 0 0 4 5 5 5 5 1 0 0 0 0 4 5 5 3 0 0 0 0 0
63 15 2 12 10 0 0 0 0 0 0 0 1 4 4 0 0 0 0 0 2 3 0 0 1 4 4 0 2 4 5 1
0 2 5 5 3 3 0 0 0 0 0 0 0 0 0 0 0 5 5 5 1 0 0 0 0 0 0 0 0 0 5 2
81 15 5 2 5 2 0 0 0 0 0 0 0 0 0 0 4 5 5 0 0 0 0 0 0 0 3 4 3 5 5 0
5 4 46 1 0 0 0 0 0 0 0 4 4 3 5 5 5 7 5 5 0 0 0 0 21 11 78 100 99 90 76 11
0 3 3 5 4 4 3 0 2 4 5 5 0 0 0 0 0 0 0 2 4 56 5 26 6 12 86 66 36 73 99 84
0 5 5 5 5 5 5 5 5 21 7 1 0 0 0 0 2 5 8 5 6 89 100 48 5 19 4 3 2 4 1 5
5 5 5 5 5 13 5 5 44 68 5 1 2 4 5 5 6 28 42 22 7 99 86 5 5 33 2 1 1 1 18 81

GFSFLT2_prec_cloud_012.txt.gz
Cloud_Cover
100 100 100 100 100 100 100 100 92 100 100 100 100 51 85 50 85 8 93 46 8 36 32 9 5 6 5 4 0 0 0 0
100 100 100 99 100 100 100 100 100 100 100 100 100 93 100 15 98 26 6 5 6 17 5 5 5 0 5 0 0 0 0 0
100 100 100 100 100 100 100 100 100 100 100 100 100 90 100 100 66 5 5 5 5 3 5 0 4 0 0 0 0 0 0 0
100 100 100 100 100 100 100 100 100 100 100 100 100 99 93 85 5 13 5 5 1 3 0 0 0 0 0 0 0 0 0 0
100 100 100 100 100 100 100 100 100 100 100 100 89 92 100 100 5 5 3 3 4 0 0 0 0 0 0 0 0 0 0 0
100 100 100 100 100 100 100 100 100 100 100 100 100 100 99 76 69 33 5 5 4 5 0 0 0 0 0 0 0 0 0 0
100 100 100 100 100 100 94 95 100 100 98 100 100 100 100 100 84 63 6 5 36 8 8 5 81 100 9 3 0 0 0 0
100 100 100 81 82 92 92 100 100 100 100 100 100 100 100 100 67 94 97 75 8 88 98 100 100 59 4 0 0 0 0 0
22 33 99 88 83 100 98 100 100 100 100 98 100 100 100 100 100 100 100 100 100 100 100 29 9 0 0 0 0 0 0 0
78 79 84 72 100 100 100 100 100 100 100 100 100 100 100 100 100 100 100 100 100 97 53 5 2 3 5 5 5 2 0 0
78 72 62 74 96 100 100 100 100 100 100 100 100 100 100 100 100 100 97 76 25 1 2 5 5 3 5 5 10 7 2 3
98 100 100 73 100 100 100 100 100 100 100 100 100 100 100 89 41 7 0 0 0 0 0 0 0 0 0 0 4 0 0 3
91 97 56 39 62 51 71 72 43 45 9 0 3 1 0 0 0 0 0 0 0 0 0 1 0 2 0 0 0 4 38 84
74 42 22 5 5 0 0 1 0 0 0 0 0 0 3 0 0 0 0 0 3 3 5 5 5 5 12 5 20 24 4 37
47 44 5 5 18 12 4 3 0 0 1 3 5 0 0 0 0 0 1 4 4 0 1 5 5 5 28 9 6 0 4 3
5 6 34 10 2 0 0 0 4 5 5 39 5 5 4 0 0 0 0 0 0 1 1 1 4 5 5 5 6 5 5 5
23 46 1 0 0 0 0 4 5 6 7 5 5 5 5 4 0 0 0 0 0 0 0 2 12 13 5 5 5 5 15 82
1 0 0 1 5 5 4 5 22 37 24 5 13 5 5 0 0 0 0 0 2 5 5 5 48 100 92 5 11 30 25 96
0 2 2 5 5 5 20 16 16 77 54 37 25 4 0 0 0 2 21 47 30 67 92 72 42 45 83 37 65 98 100 100
0 3 5 5 5 7 99 82 78 96 87 81 4 3 5 5 63 59 7 64 92 37 100 100 88 82 77 86 100 100 100 100

GFSFLT2_prec_cloud_015.txt.gz
Cloud_Cover
100 100 100 100 100 100 100 100 100 100 100 100 100 100 100 76 100 99 100 95 95 100 67 65 5 5 4 6 3 2 0 0
100 100 100 100 100 100 100 100 100 100 100 100 100 100 100 100 100 100 100 100 100 90 59 23 5 4 4 2 4 3 4 2
100 100 100 100 100 100 100 100 100 100 100 100 100 100 100 100 100 100 100 100 76 44 30 5 3 4 0 1 5 5 0 2
100 100 100 100 100 100 100 100 100 100 100 100 100 100 100 100 100 86 86 75 68 5 5 0 0 0 5 0 0 0 1 3
100 100 100 100 100 100 100 100 100 100 100 100 100 100 98 100 99 66 58 14 41 5 10 5 1 3 0 0 1 87 100 20
100 100 100 100 100 100 100 100 100 100 100 100 100 91 100 78 40 51 79 99 8 17 27 30 52 8 66 100 100 100 11 0
46 54 90 100 100 100 100 100 100 100 100 100 100 100 96 92 100 100 78 100 51 73 47 49 28 97 100 87 63 3 0 0
100 100 100 100 100 100 100 100 100 100 100 100 100 81 95 100 100 100 100 99 100 100 100 100 100 100 55 83 43 5 4 1
78 98 77 100 100 100 100 100 100 100 100 100 100 100 100 100 100 100 100 100 100 100 100 62 27 98 8 5 4 3 5 5
100 80 73 91 81 99 94 64 92 98 100 100 100 100 100 100 100 100 100 100 100 93 38 84 36 2 0 3 0 0 2 5
89 55 93 56 49 98 85 50 29 66 100 100 100 100 100 100 100 92 74 100 93 30 2 1 2 4 0 4 2 0 5 5
100 100 100 72 95 48 94 100 73 59 88 100 97 78 73 34 6 7 1 0 0 0 0 0 0 0 0 5 0 0 0 0
17 100 100 89 93 55 64 98 89 21 7 0 0 0 0 0 0 0 0 0 0 0 0 1 0 0 0 5 5 2 0 4
85 96 99 91 73 12 7 5 2 0 0 0 0 1 3 5 3 5 5 5 4 1 2 4 1 1 2 5 1 2 5 5
76 63 52 20 52 5 0 0 0 0 0 0 1 5 5 5 4 1 4 0 0 0 3 4 5 5 5 4 5 5 1 3
6 5 5 5 3 0 0 69 99 6 5 5 5 5 5 5 5 5 1 3 0 3 5 4 5 5 5 5 34 29 58 32
5 5 2 0 0 0 0 2 5 5 5 5 5 6 89 12 5 2 0 0 4 5 5 5 5 11 6 5 63 74 51 5
5 0 0 0 0 0 0 5 5 22 85 73 70 17 5 41 5 0 0 0 5 5 5 10 7 42 98 15 53 90 72 100
5 4 0 0 0 3 5 7 5 39 100 17 5 5 31 3 3 2 0 3 5 5 21 84 63 100 72 27 98 96 84 100
5 5 4 1 0 5 5 6 87 100 100 16 5 5 5 5 5 2 5 89 98 87 30 42 69 100 95 58 86 100 100 100

GFSFLT2_prec_cloud_018.txt.gz
Cloud_Cover
100 100 100 100 100 100 100 100 100 100 100 100 100 100 100 100 100 100 100 100 100 100 100 100 100 43 91 56 5 5 5 6
100 100 100 100 100 100 100 100 100 100 100 100 100 100 100 100 100 100 100 100 100 99 100 100 100 10 98 5 28 12 4 0
100 100 100 100 100 100 100 100 100 100 100 100 100 100 100 100 100 100 100 100 100 92 52 100 6 59 10 2 5 5 0 0
100 100 100 100 100 100 100 100 100 100 100 100 100 100 100 100 100 100 100 71 100 100 100 91 5 5 5 0 5 3 0 0
100 100 100 100 100 100 100 100 100 100 100 100 100 100 100 100 100 100 54 78 95 100 42 100 97 26 5 2 4 5 5 4
100 100 100 100 100 100 100 100 100 100 100 100 100 100 100 100 99 77 100 100 96 82 7 8 21 36 35 89 100 100 73 100
100 100 100 100 100 100 100 100 100 100 100 100 100 100 100 96 66 65 98 90 85 75 74 100 100 71 10 100 100 100 100 99
97 100 100 100 100 100 100 100 100 100 100 100 100 99 100 95 100 100 100 100 67 99 100 100 100 100 100 100 89 40 66 4
100 99 100 100 100 100 100 100 100 100 100 100 100 100 100 100 95 100 100 98 92 67 100 100 100 98 96 99 41 11 3 0
100 100 100 86 93 100 100 100 100 100 100 100 95 57 62 100 85 78 68 42 100 100 100 97 96 95 84 3 0 0 0 0
92 100 100 87 74 86 100 58 98 92 73 100 100 57 7 32 88 76 55 34 6 0 0 0 0 0 0 0 0 0 0 0
100 100 98 100 100 85 49 68 90 67 35 8 5 5 5 4 1 0 0 0 0 0 0 0 0 0 0 0 0 0 0 0
47 60 88 46 5 5 35 5 5 5 5 4 2 0 0 0 0 0 0 0 0 5 0 0 0 0 0 0 0 0 0 0
64 69 15 17 6 77 5 5 2 0 0 0 0 0 0 0 0 0 3 5 5 1 0 0 0 0 0 0 0 0 0 1
22 6 6 5 75 4 10 6 0 0 0 0 0 0 0 3 4 0 5 2 0 0 0 0 1 1 0 4 0 4 5 1
5 5 59 63 7 0 0 0 0 0 26 0 4 5 35 49 4 1 0 0 4 0 0 0 0 2 4 4 5 9 5 5
82 39 3 3 0 0 0 0 0 0 0 5 5 100 95 15 4 2 0 0 0 0 1 5 8 5 5 5 7 18 5 4
0 0 3 0 1 0 0 0 1 4 7 14 19 89 79 96 15 3 5 5 5 0 5 5 5 5 5 6 51 43 45 4
0 0 0 3 5 0 4 11 5 5 12 79 70 99 100 42 5 5 5 5 5 5 7 24 15 5 5 11 24 12 5 5
0 0 5 5 5 13 42 8 5 5 39 71 45 57 73 11 5 5 5 40 19 32 73 29 8 5 12 100 99 5 38 77

GFSFLT2_prec_cloud_021.txt.gz
Cloud_Cover
100 100 100 100 100 100 100 100 100 100 100 100 100 100 100 100 100 100 100 38 81 100 99 100 100 100 100 100 100 67 93 56
100 100 100 100 100 100 100 100 100 100 100 100 100 100 100 100 100 100 100 100 100 100 100 100 100 100 38 11 98 99 40 7
100 100 100 100 100 100 100 100 100 100 100 100 100 100 100 100 100 100 100 100 100 100 98 100 100 100 7 98 66 10 80 33
100 100 100 100 100 100 100 100 100 100 100 100 100 100 100 100 100 100 100 100 100 100 86 78 92 92 27 26 83 31 5 2
100 100 100 100 100 100 100 100 100 100 100 100 100 100 100 100 100 100 100 100 100 100 100 100 100 93 57 67 90 14 5 2
100 100 100 100 100 100 100 100 100 100 100 100 100 100 100 100 100 100 100 100 100 100 100 100 91 94 66 40 90 100 87 86
100 100 100 100 100 100 100 100 100 100 100 100 100 100 100 100 100 100 100 100 100 100 100 100 75 84 46 86 27 37 100 38
100 100 100 100 100 100 100 100 100 100 100 100 100 100 100 100 100 100 100 100 100 94 97 34 6 10 52 54 63 100 100 100
100 100 100 100 100 100 100 100 100 100 100 100 100 100 100 100 100 99 100 100 8 5 0 1 2 14 39 8 0 0 0 1
98 100 100 100 100 100 100 100 100 100 100 100 100 100 100 100 100 100 92 23 5 5 5 0 0 0 0 0 0 0 0 0
99 86 100 100 52 100 100 100 100 100 100 99 84 80 94 94 26 26 5 5 5 3 0 0 0 0 0 0 0 0 0 0
47 10 5 99 100 92 100 68 41 100 96 66 88 85 62 38 29 10 5 1 0 0 0 0 0 0 0 0 0 0 0 0
77 100 100 100 68 40 88 59 5 5 23 5 6 6 5 5 0 0 0 2 0 0 0 0 0 0 0 0 0 0 0 0
14 53 100 41 5 74 60 5 5 5 22 5 4 0 0 0 5 5 5 5 1 0 0 0 0 0 0 0 0 0 0 0
38 46 86 25 5 5 10 5 25 2 0 0 0 0 2 5 5 43 5 63 4 0 0 0 0 0 0 0 0 1 2 1
5 5 5 35 24 23 2 0 0 0 0 0 0 1 5 5 5 21 80 36 4 0 0 0 0 0 1 4 1 4 5 2
5 5 2 1 0 5 0 0 0 0 0 0 0 5 16 5 5 5 5 5 0 0 0 0 3 5 5 5 5 5 5 5
60 43 38 1 4 4 5 5 2 3 1 5 8 80 10 10 5 14 60 5 5 2 1 5 5 5 5 10 5 5 8 16
100 66 0 0 3 4 5 5 5 17 54 55 67 85 16 5 5 31 5 5 5 5 5 5 5 5 5 5 5 5 5 35
85 8 0 3 5 12 73 80 73 100 100 100 75 32 5 5 42 39 5 0 5 5 5 5 5 5 5 5 5 5 88 5